Location: Curupao
(10.4996°N, 66.6442°W)
Time: 00:23:22
(UTC+00:00)

Lacrosse 5 rocket - Pass Details

Date: 23 May 2024
Orbit: 446 x 572 km, 57.0° (Epoch: 15 June)

Event Time Altitude Azimuth Distance (km) Brightness Sun altitude
Rises 07:51:07 0° 349° (N) 2,593 5.0 -30.2°
Reaches altitude 10° 07:53:44 10° 6° (N) 1,682 4.2 -29.6°
Maximum altitude 07:56:38 21° 56° (NE) 1,131 3.6 -29.0°
Drops below altitude 10° 07:59:27 10° 107° (ESE) 1,628 4.2 -28.4°
Sets 08:01:55 0° 124° (ESE) 2,482 5.0 -27.9°
